Weather History for Fort Leonard Wood, MO

Change the Weather History Date:

Thursday, April 10, 2014

  Actual Average Record
Temperature  
Mean Temperature 70 °F -  
Max Temperature 85 °F 65 °F 87 °F (2011)
Min Temperature 56 °F 46 °F 32 °F (2003)
Cooling Degree Days 5    
Growing Degree Days 20 (Base 50)    
Moisture  
Dew Point 42 °F    
Average Humidity 38    
Maximum Humidity 61    
Minimum Humidity 23    
Precipitation  
Precipitation 0.00 in - - ()
Sea Level Pressure  
Sea Level Pressure 29.84 in    
Wind  
Wind Speed 11 mph (WSW)    
Max Wind Speed 18 mph    
Max Gust Speed 29 mph    
Visibility 10 miles    
Events      
Averages and records for this station are not official NWS values.
T = Trace of Precipitation, MM = Missing Value Source: NWS Daily Summary

Daily Weather History Graph

Daily Weather History Graph

Search for Another Location

Airport:

Trip Planner

Search our weather history database for the weather conditions in past years. The results will help you decide how hot, cold, wet, or windy it might be!

Date:

Astronomy

Apr. 10, 2014 Rise Set
Actual Time 6:40 AM CDT 7:39 PM CDT
Civil Twilight 6:13 AM CDT 8:06 PM CDT
Nautical Twilight 5:41 AM CDT 8:38 PM CDT
Astronomical Twilight 5:09 AM CDT 9:11 PM CDT
Moon 3:28 PM CDT (4/10) 3:58 AM CDT (4/10)
Length of Visible Light 13h 52m
Length of Day
12h 59m
Waxing Gibbous, 80% of the Moon is Illuminated
Apr 10
Waxing Gibbous
Apr 15
Full
Apr 22
Last Quarter
Apr 29
New
May 6
First Quarter

Hourly Weather History & Observations

Time (CDT) Temp. Dew Point Humidity Pressure Visibility Wind Dir Wind Speed Gust Speed Precip Events Conditions
12:58 AM 57.2 °F 33.8 °F 41% 29.92 in 10.0 mi South 10.4 mph - N/A   Clear
1:58 AM 56.3 °F 34.5 °F 44% 29.90 in 10.0 mi South 8.1 mph - N/A   Clear
2:58 AM 56.3 °F 35.2 °F 45% 29.88 in 10.0 mi South 9.2 mph - N/A   Clear
3:58 AM 57.0 °F 35.4 °F 44% 29.86 in 10.0 mi SSW 9.2 mph - N/A   Clear
4:58 AM 57.4 °F 36.1 °F 45% 29.84 in 10.0 mi South 9.2 mph 18.4 mph N/A   Clear
5:58 AM 57.0 °F 36.9 °F 47% 29.85 in 10.0 mi SSW 8.1 mph 17.3 mph N/A   Clear
6:58 AM 58.8 °F 37.8 °F 46% 29.83 in 10.0 mi SSW 11.5 mph 23.0 mph N/A   Partly Cloudy
7:58 AM 61.0 °F 38.7 °F 44% 29.83 in 10.0 mi SSW 12.7 mph 21.9 mph N/A   Clear
8:58 AM 67.3 °F 39.6 °F 36% 29.82 in 10.0 mi SW 18.4 mph 28.8 mph N/A   Clear
9:58 AM 71.1 °F 39.9 °F 32% 29.83 in 10.0 mi SW 13.8 mph 28.8 mph N/A   Clear
10:58 AM 73.8 °F 41.5 °F 31% 29.85 in 10.0 mi SW 11.5 mph 21.9 mph N/A   Clear
11:58 AM 77.7 °F 42.4 °F 28% 29.84 in 10.0 mi SW 11.5 mph 26.5 mph N/A   Partly Cloudy
12:58 PM 80.1 °F 43.5 °F 27% 29.81 in 10.0 mi WSW 12.7 mph 17.3 mph N/A   Partly Cloudy
1:58 PM 82.4 °F 43.9 °F 26% 29.79 in 10.0 mi South 15.0 mph 20.7 mph N/A   Clear
2:58 PM 83.8 °F 42.6 °F 23% 29.77 in 10.0 mi West 9.2 mph 21.9 mph N/A   Mostly Cloudy
3:01 PM 84.2 °F 42.8 °F 23% 29.79 in 10.0 mi WSW 12.7 mph 21.9 mph N/A   Scattered Clouds
3:58 PM 84.4 °F 43.7 °F 24% 29.77 in 10.0 mi West 10.4 mph 19.6 mph N/A   Clear
4:06 PM 84.2 °F 44.6 °F 25% 29.79 in 10.0 mi WSW 16.1 mph 25.3 mph N/A   Clear
4:29 PM 84.2 °F 42.8 °F 23% 29.80 in 10.0 mi West 13.8 mph 21.9 mph N/A   Scattered Clouds
4:58 PM 83.5 °F 43.7 °F 25% 29.79 in 10.0 mi WSW 11.5 mph 23.0 mph N/A   Partly Cloudy
5:28 PM 82.4 °F 46.4 °F 28% 29.82 in 10.0 mi NW 15.0 mph 24.2 mph N/A   Partly Cloudy
5:39 PM 77.0 °F 48.2 °F 36% 29.82 in 10.0 mi North 16.1 mph 21.9 mph N/A   Scattered Clouds
5:58 PM 75.7 °F 49.1 °F 39% 29.82 in 10.0 mi NNW 13.8 mph - N/A   Mostly Cloudy
6:58 PM 72.0 °F 48.7 °F 44% 29.85 in 10.0 mi North 11.5 mph - N/A   Clear
7:58 PM 67.6 °F 48.9 °F 51% 29.87 in 10.0 mi North 5.8 mph - N/A   Clear
8:58 PM 65.8 °F 48.4 °F 53% 29.90 in 10.0 mi Calm Calm - N/A   Clear
9:58 PM 63.3 °F 48.9 °F 59% 29.95 in 10.0 mi NNW 5.8 mph - N/A   Overcast
10:58 PM 61.5 °F 46.4 °F 58% 29.95 in 10.0 mi NNE 10.4 mph - N/A   Scattered Clouds
11:58 PM 58.5 °F 45.1 °F 61% 29.96 in 10.0 mi North 6.9 mph - N/A   Partly Cloudy